Regional Weather Roundup
Issued by NWS

Home | Current Version | Previous Version | Graphics & Text | Print | Product List | Glossary On
Versions: 1 2 3 4 5 6 7 8 9 10 11 12 13 14 15 16 17 18 19 20 21 22 23 24 25 26 27 28 29 30 31 32 33 34 35 36 37 38 39 40 41 42 43 44 45 46 47 48 49 50
000
ASUS43 KDTX 241201
RWRMI
MICHIGAN HOURLY REGIONAL WEATHER ROUNDUP
NATIONAL WEATHER SERVICE DETROIT/PONTIAC MI
800 AM EDT MON APR 24 2017

NOTE: "FAIR" INDICATES FEW OR NO CLOUDS BELOW 12,000 FEET WITH NO
SIGNIFICANT WEATHER AND/OR OBSTRUCTION TO VISIBILITY.

MIZ047>049-052>055-059>063-066>070-074>076-081>083-241300-
SOUTHEAST LOWER MICHIGAN

CITY           SKY/WX    TMP DP  RH WIND       PRES   REMARKS
ADRIAN         SUNNY     43  38  82 NE6       30.08R
6HR MIN TEMP:  38; 6HR MAX TEMP:  43;

ALMA           SUNNY     41  38  87 E5        30.11R
6HR MIN TEMP:  37; 6HR MAX TEMP:  43;

ANN ARBOR      SUNNY     44  39  82 N7        30.08R
BAD AXE        SUNNY     41  37  86 E6        30.12R
6HR MIN TEMP:  35; 6HR MAX TEMP:  41;

CARO           SUNNY     39  36  89 E6        30.10S WCI  35
DETROIT CITY   SUNNY     43  39  87 E5        30.09
DETROIT        MOSUNNY   45  39  79 NE6       30.09R
6HR MIN TEMP:  41; 6HR MAX TEMP:  48;

FLINT          SUNNY     41  37  86 E6        30.10R
6HR MIN TEMP:  37; 6HR MAX TEMP:  43;

GROSSE ILE     SUNNY     44  40  88 NE10      30.07R
6HR MIN TEMP:  42; 6HR MAX TEMP:  46;

HILLSDALE      SUNNY     45  34  65 E6        30.05R
HOWELL         SUNNY     41  37  84 CALM      30.08R
6HR MIN TEMP:  38; 6HR MAX TEMP:  46;


CITY           SKY/WX    TMP DP  RH WIND       PRES   REMARKS
JACKSON        SUNNY     44  37  76 NE3       30.07R
6HR MIN TEMP:  40; 6HR MAX TEMP:  48;

LAMBERTVILLE   SUNNY     43  39  85 NE3       30.06S
6HR MIN TEMP:  36; 6HR MAX TEMP:  43;

LANSING        SUNNY     41  36  82 E3        30.09R
6HR MIN TEMP:  37; 6HR MAX TEMP:  44;

LAPEER         FAIR      39  38  95 CALM      30.10R
6HR MIN TEMP:  35; 6HR MAX TEMP:  40;

MASON          SUNNY     41  39  92 CALM      30.07S
MONROE         SUNNY     43  39  85 N5        30.07S
6HR MIN TEMP:  40; 6HR MAX TEMP:  45;

MT. CLEMENS    MOSUNNY   42  41  99 NE6       30.08R
6HR MIN TEMP:  36; 6HR MAX TEMP:  42;

PONTIAC        MOSUNNY   46  39  76 E5        30.08R
6HR MIN TEMP:  40; 6HR MAX TEMP:  46;

PORT HOPE        N/A     41  38  89 E9        30.11S
6HR MIN TEMP:  40; 6HR MAX TEMP:  41;

PORT HURON     SUNNY     41  37  87 NE5       30.11R
TRI CITIES     SUNNY     43  39  86 E6        30.11R
6HR MIN TEMP:  39; 6HR MAX TEMP:  45;

MIDLAND        FAIR      42  38  85 CALM      30.11R
6HR MIN TEMP:  39; 6HR MAX TEMP:  44;

TROY           SUNNY     44  37  78 NE8       30.11R
SAGINAW HB     SUNNY     39  34  81 NE3       30.10S
$$
MIZ043>046-050>051-056>058-064>065-071>073-077>080-241300-
SOUTHWEST LOWER MICHIGAN

CITY           SKY/WX    TMP DP  RH WIND       PRES   REMARKS
BATTLE CREEK   SUNNY     46  41  82 E5        30.06R
6HR MIN TEMP:  41; 6HR MAX TEMP:  50;

BENTON HARBOR  SUNNY     38  34  85 E5        30.03R WCI  34
6HR MIN TEMP:  32; 6HR MAX TEMP:  39;

BIG RAPIDS     SUNNY     40  35  80 SE6       30.09S
6HR MIN TEMP:  38; 6HR MAX TEMP:  42;

COLDWATER      SUNNY     45  37  73 CALM      30.05R
6HR MIN TEMP:  38; 6HR MAX TEMP:  45;

FREMONT        FAIR      42  37  81 E12       30.06S
HOLLAND        SUNNY     44  39  82 E7        30.06R
6HR MIN TEMP:  40; 6HR MAX TEMP:  47;

GRAND RAPIDS   MOSUNNY   43  39  86 E9        30.07R
6HR MIN TEMP:  41; 6HR MAX TEMP:  46;

IONIA          FAIR      41  37  87 NE5       30.08R
6HR MIN TEMP:  39; 6HR MAX TEMP:  45;

KALAMAZOO      SUNNY     44  41  89 CALM      30.06R
6HR MIN TEMP:  40; 6HR MAX TEMP:  47;

LUDINGTON      SUNNY     42  37  82 SE7       30.05R
6HR MIN TEMP:  37; 6HR MAX TEMP:  42;

MARSHALL       SUNNY     42  40  90 E3        30.06R
6HR MIN TEMP:  38; 6HR MAX TEMP:  47;

MOUNT PLEASANT SUNNY     39  35  84 NE3       30.10R
6HR MIN TEMP:  36; 6HR MAX TEMP:  41;

MUSKEGON       SUNNY     44  38  79 E8        30.06S
6HR MIN TEMP:  41; 6HR MAX TEMP:  46;

SOUTH HAVEN    SUNNY     44  40  87 E5        30.04R
$$
MIZ016>042-241300-
NORTHERN LOWER MICHIGAN

CITY           SKY/WX    TMP DP  RH WIND       PRES   REMARKS
ALPENA         PTSUNNY   38  34  85 E8        30.16R WCI  32
6HR MIN TEMP:  31; 6HR MAX TEMP:  38;

BEAVER ISLAND  SUNNY     36  32  84 E12       30.09S WCI  28
6HR MIN TEMP:  32; 6HR MAX TEMP:  36;

BELLAIRE       SUNNY     35  31  85 CALM      30.08S
6HR MIN TEMP:  30; 6HR MAX TEMP:  35;

CADILLAC       SUNNY     39  31  72 SE6       30.07R WCI  35
CHARLEVOIX     SUNNY     37  31  78 E14       30.10S WCI  28
FRANKFORT      SUNNY     42  30  62 SE8       30.04R
GAYLORD        SUNNY     35  28  75 E8        30.09R WCI  29
6HR MIN TEMP:  32; 6HR MAX TEMP:  37;

GRAYLING       SUNNY     33  27  80 E6        30.11R WCI  27
6HR MIN TEMP:  29; 6HR MAX TEMP:  34;

HARBOR SPRINGS SUNNY     35  31  85 E16       30.10S WCI  25
HOUGHTON LAKE  SUNNY     37  29  72 E5        30.10R WCI  33
6HR MIN TEMP:  33; 6HR MAX TEMP:  39;

MANISTEE       SUNNY     38  35  89 E7        30.06R WCI  33
OSCODA         MOSUNNY   40  35  81 E6        30.14R
6HR MIN TEMP:  36; 6HR MAX TEMP:  40;

PELLSTON       MOSUNNY   36  30  79 SE9       30.12S WCI  29
6HR MIN TEMP:  28; 6HR MAX TEMP:  36;

ROGERS CITY    SUNNY     37  31  81 E9G16     30.17R WCI  30
TRAVERSE CITY  MOSUNNY   40  26  57 CALM      30.06S
6HR MIN TEMP:  31; 6HR MAX TEMP:  40;

$$
MIZ007>008-015-241300-
EASTERN UPPER MICHIGAN

CITY           SKY/WX    TMP DP  RH WIND       PRES   REMARKS
KINROSS        SUNNY     35  25  66 E14       30.15R WCI  26
6HR MIN TEMP:  31; 6HR MAX TEMP:  35;

MACKINAC ISLAN SUNNY     36  30  80 E15G28    30.13R WCI  26
NEWBERRY       MOSUNNY   31  27  86 E7        30.12S WCI  24
6HR MIN TEMP:  29; 6HR MAX TEMP:  31;

S. S. MARIE    MOSUNNY   36  23  59 SE8       30.16R WCI  30
6HR MIN TEMP:  36; 6HR MAX TEMP:  37;

MUNISING         N/A     33  25  72 CALM      30.10R
6HR MIN TEMP:  31; 6HR MAX TEMP:  33;

$$
MIZ004>006-011>014-085-241300-
CENTRAL UPPER MICHIGAN

CITY           SKY/WX    TMP DP  RH WIND       PRES   REMARKS
MANISTIQUE     CLOUDY    32  30  92 NE6       30.09R WCI  27
6HR MIN TEMP:  28; 6HR MAX TEMP:  32;

ESCANABA       MOSUNNY   32  27  81 NE5       30.09R WCI  27
6HR MIN TEMP:  30; 6HR MAX TEMP:  33;

MENOMINEE      SUNNY     37  32  82 E9        30.07R WCI  30
6HR MIN TEMP:  35; 6HR MAX TEMP:  37;

SAWYER-GWINN   SUNNY     28  25  86 NE6       30.07S WCI  22
$$
MIZ001>003-009>011-084-241300-
WESTERN UPPER MICHIGAN

CITY           SKY/WX    TMP DP  RH WIND       PRES   REMARKS
IRON MOUNTAIN  MOSUNNY   30  21  69 VRB6      30.04S WCI  24
6HR MIN TEMP:  28; 6HR MAX TEMP:  31;

HOUGHTON       CLOUDY    32  24  72 E13G22    30.05S WCI  22
6HR MIN TEMP:  30; 6HR MAX TEMP:  32; 6HR PCP: TRACE;

COPPER HARBOR    N/A     34  27  75 VRB5      30.10S WCI  30
6HR MIN TEMP:  32; 6HR MAX TEMP:  34;

IRONWOOD       PTCLDY    34  20  56 SE7       29.96S WCI  28
6HR MIN TEMP:  32; 6HR MAX TEMP:  34;

$$

ABBREVIATIONS USED IN REMARKS
   TC - TEMPERATURE IN CELSIUS
  WCI - WIND CHILL INDEX
   HX - HEAT INDEX
  VSB - VISIBILITY




USA.gov is the U.S. government's official web portal to all federal, state and local government web resources and services.